Location: Hopville
(44.8032°N, 123.1329°W)
Time: 16:45:02
(UTC+00:00)

Cosmos 372 Rocket - Pass Details

Date: 24 January 2021
Orbit: 738 x 768 km, 74.1° (Epoch: 01 March)

Event Time Altitude Azimuth Distance (km) Brightness Sun altitude
Exits shadow 13:20:09 28° 349° (N) 1,433 5.2 -24.6°
Maximum altitude 13:23:00 71° 67° (ENE) 812 4.2 -24.1°
Drops below altitude 10° 13:28:12 10° 152° (SSE) 2,294 6.8 -23.2°
Sets 13:30:34 0° 155° (SSE) 3,212 7.6 -22.8°
